Location: Cactus School
(34.5700°N, 118.0931°W)
Time: 08:24:07
(UTC-07:00)

Transit 4A - All Passes

Search period start: 13 April 2024 00:00
Search period end: 23 April 2024 00:00
Orbit: 871 x 972 km, 66.8° (Epoch: 13 April)

Date Brightness Start Highest point End Pass type
(mag) Time Alt. Az. Time Alt. Az. Time Alt. Az.
13 Apr - 00:35:22 10° NNW 00:41:13 85° WSW 00:47:07 10° SSE visible
13 Apr - 13:52:43 10° S 13:58:11 36° ESE 14:03:33 10° NE daylight
13 Apr - 15:39:08 10° WSW 15:44:28 32° NW 15:49:43 10° N daylight
13 Apr - 22:59:14 10° N 23:03:35 21° NE 23:07:57 10° E visible
14 Apr - 00:44:32 10° NW 00:50:12 54° WSW 00:55:56 10° S visible
14 Apr - 14:01:11 10° S 14:07:07 56° ESE 14:12:55 10° NE daylight
14 Apr - 15:49:13 10° W 15:53:45 22° NW 15:58:13 10° N daylight
14 Apr - 23:07:44 10° N 23:12:52 31° NE 23:18:02 10° ESE visible
15 Apr - 00:53:56 10° NW 00:59:07 34° WSW 01:04:23 10° S visible
15 Apr - 14:10:02 10° SSW 14:16:07 86° ESE 14:22:04 10° NNE daylight
15 Apr - 15:59:52 10° W 16:03:08 15° NW 16:06:23 10° NNW daylight
15 Apr - 23:16:27 10° NNW 23:22:04 47° ENE 23:27:42 10° SE visible
16 Apr - 01:03:39 10° WNW 01:07:59 22° WSW 01:12:22 10° SSW visible
16 Apr - 12:35:48 10° SE 12:39:26 16° ESE 12:43:01 10° ENE daylight
16 Apr - 14:19:11 10° SW 14:25:11 63° WNW 14:31:04 10° NNE daylight
16 Apr - 21:42:26 10° NNE 21:43:51 11° NE 21:45:17 10° ENE visible
16 Apr - 23:25:21 10° NNW 23:31:11 72° ENE 23:37:03 10° SSE visible
17 Apr - 01:14:08 10° WNW 01:16:47 13° WSW 01:19:28 10° SW visible
17 Apr - 12:43:20 10° SSE 12:48:16 26° ESE 12:53:06 10° NE daylight
17 Apr - 14:28:38 10° SW 14:34:19 41° WNW 14:39:54 10° NNE daylight
17 Apr - 21:49:46 10° N 21:53:19 16° NE 21:56:53 10° E visible
17 Apr - 23:34:23 10° NNW 23:40:12 75° WSW 23:46:05 10° SSE visible
18 Apr - 12:51:31 10° S 12:57:09 41° ESE 13:02:40 10° NE daylight
18 Apr - 14:38:26 10° WSW 14:43:32 28° NW 14:48:34 10° N daylight
18 Apr - 21:58:02 10° N 22:02:40 24° NE 22:07:20 10° ESE visible
18 Apr - 23:43:37 10° NW 23:49:10 47° WSW 23:54:48 10° S visible
19 Apr - 13:00:07 10° SSW 13:06:06 64° ESE 13:11:58 10° NNE daylight
19 Apr - 14:48:40 10° W 14:52:51 19° NW 14:56:59 10° N daylight
19 Apr - 22:06:36 10° N 22:11:55 35° ENE 22:17:16 10° ESE visible
19 Apr - 23:53:05 10° NW 23:58:04 30° WSW 00:03:08 10° SSW visible
20 Apr - 11:27:48 10° ESE 11:29:35 11° ESE 11:31:21 10° E daylight
20 Apr - 13:09:03 10° SSW 13:15:07 84° WNW 13:21:04 10° NNE daylight
20 Apr - 14:59:35 10° WNW 15:02:16 13° NW 15:04:55 10° NNW daylight
20 Apr - 22:15:23 10° NNW 22:21:05 53° ENE 22:26:50 10° SE visible
21 Apr - 00:02:57 10° WNW 00:06:55 19° WSW 00:10:55 10° SSW visible
21 Apr - 11:34:16 10° SSE 11:38:22 19° ESE 11:42:24 10° ENE daylight
21 Apr - 13:18:17 10° SW 13:24:12 55° WNW 13:30:00 10° NNE daylight
21 Apr - 20:40:38 10° NNE 20:43:00 12° NE 20:45:21 10° ENE visible
21 Apr - 22:24:19 10° NNW 22:30:10 82° ENE 22:36:05 10° SSE visible
22 Apr - 00:14:02 10° W 00:15:42 11° WSW 00:17:22 10° WSW visible
22 Apr - 11:42:03 10° SSE 11:47:12 30° ESE 11:52:17 10° NE daylight
22 Apr - 13:27:51 10° WSW 13:33:21 37° WNW 13:38:47 10° N daylight
22 Apr - 20:48:27 10° N 20:52:25 18° NE 20:56:24 10° E visible
22 Apr - 22:33:25 10° NNW 22:39:11 65° WSW 22:45:02 10° SSE visible
